DW0148 Weather Reports


Display with metric or nautical units.
time (UTC)temp
F
wind
direction
speed
MPH
gust
MPH
rain 1hr
in
rain 24hr
in
rain mn
in
humidity
%
barometer
mb
20180718174018 85 40 4.0 11.0 0.00 0.15 0.00 53 1016.8
20180718173517 85 355 5.0 11.0 0.00 0.15 0.00 57 1016.8
20180718173016 85 7 4.0 9.0 0.00 0.15 0.00 51 1016.8
20180718172515 85 342 6.0 10.0 0.00 0.15 0.00 53 1017.1
20180718172014 85 52 3.0 13.0 0.00 0.15 0.00 54 1017.1
20180718171513 85 52 2.0 13.0 0.00 0.15 0.00 57 1017.1
20180718171012 85 332 4.0 11.0 0.00 0.15 0.00 51 1017.1
20180718170511 85 352 4.0 11.0 0.00 0.15 0.00 54 1017.1
20180718170010 85 4 5.0 10.0 0.00 0.15 0.00 55 1017.1
20180718165509 85 353 2.0 10.0 0.00 0.15 0.00 56 1017.1
20180718165007 85 30 3.0 9.0 0.00 0.15 0.00 57 1017.4
20180718164507 85 342 4.0 8.0 0.00 0.15 0.00 54 1017.4
20180718164006 85 11 2.0 8.0 0.00 0.15 0.00 57 1017.4
20180718163505 84 329 3.0 10.0 0.00 0.15 0.00 56 1017.4
20180718163004 84 344 6.0 10.0 0.00 0.15 0.00 57 1017.4
20180718162503 84 348 2.0 10.0 0.00 0.15 0.00 59 1017.4
20180718162002 84 41 3.0 10.0 0.00 0.15 0.00 59 1017.4
20180718161501 84 14 3.0 10.0 0.00 0.15 0.00 57 1017.4
20180718161000 83 15 3.0 12.0 0.00 0.15 0.00 61 1017.4
20180718160459 83 4 5.0 13.0 0.00 0.15 0.00 57 1017.4
20180718155959 83 336 6.0 15.0 0.00 0.15 0.00 59 1017.4
20180718155458 83 328 5.0 15.0 0.00 0.15 0.00 59 1017.4
20180718154957 83 358 5.0 11.0 0.00 0.15 0.00 65 1017.4
20180718154456 83 50 4.0 11.0 0.00 0.15 0.00 63 1017.4
20180718153955 82 34 4.0 11.0 0.00 0.15 0.00 63 1017.4
20180718153454 82 340 5.0 14.0 0.00 0.15 0.00 66 1017.4
20180718152953 82 338 9.0 14.0 0.00 0.15 0.00 62 1017.4
20180718152452 82 354 5.0 11.0 0.00 0.15 0.00 62 1017.4
20180718151950 82 358 4.0 11.0 0.00 0.15 0.00 63 1017.4
20180718150948 82 8 5.0 14.0 0.00 0.15 0.00 64 1017.8
20180718150448 82 344 7.0 13.0 0.00 0.15 0.00 65 1017.8
20180718145946 82 355 4.0 14.0 0.00 0.15 0.00 65 1017.8
20180718145445 82 354 6.0 14.0 0.00 0.15 0.00 66 1017.8
20180718144944 82 3 4.0 9.0 0.00 0.15 0.00 69 1017.8
20180718144443 82 344 3.0 11.0 0.00 0.15 0.00 70 1017.8
20180718143938 81 17 4.0 11.0 0.00 0.15 0.00 71 1017.4
20180718143431 81 331 3.0 9.0 0.00 0.15 0.00 72 1017.4
20180718142925 81 343 3.0 5.0 0.00 0.15 0.00 76 1017.4
20180718142415 80 343 3.0 6.0 0.00 0.15 0.00 75 1017.4
20180718141908 80 356 2.0 6.0 0.00 0.15 0.00 79 1017.8
20180718141403 79 345 3.0 8.0 0.00 0.15 0.00 77 1017.8
20180718140857 79 12 4.0 8.0 0.00 0.15 0.00 75 1017.8
20180718140351 79 331 2.0 8.0 0.00 0.15 0.00 79 1017.8
20180718135845 78 11 2.0 8.0 0.00 0.15 0.00 79 1017.8
20180718135344 78 4 5.0 8.0 0.00 0.15 0.00 77 1017.8
20180718134843 78 6 3.0 5.0 0.00 0.15 0.00 80 1017.8
20180718134342 77 27 2.0 4.0 0.00 0.15 0.00 80 1017.8
20180718133841 77 315 2.0 4.0 0.00 0.15 0.00 83 1017.8
20180718133340 76 347 2.0 5.0 0.00 0.15 0.00 87 1017.8
20180718132839 76 20 2.0 5.0 0.00 0.15 0.00 88 1017.8
20180718132338 76 7 2.0 5.0 0.00 0.15 0.00 88 1017.8
20180718131837 76 17 1.0 5.0 0.00 0.15 0.00 91 1017.4
20180718131336 75 348 3.0 5.0 0.00 0.15 0.00 91 1017.8
20180718130835 75 358 2.0 4.0 0.00 0.15 0.00 94 1017.8
20180718130334 74 352 2.0 4.0 0.00 0.15 0.00 94 1017.8
20180718125833 74 344 2.0 4.0 0.00 0.15 0.00 95 1017.8
20180718125332 73 359 2.0 4.0 0.00 0.15 0.00 95 1017.8
20180718124831 73 340 1.0 3.0 0.00 0.15 0.00 96 1017.8
20180718124252 73 338 2.0 3.0 0.00 0.15 0.00 96 1017.8
20180718123751 73 356 1.0 3.0 0.00 0.15 0.00 96 1017.8
20180718123249 73 341 1.0 3.0 0.00 0.15 0.00 96 1017.8
20180718122749 72 343 0.0 3.0 0.00 0.15 0.00 96 1017.4
20180718122248 73 344 1.0 3.0 0.00 0.15 0.00 96 1017.4
20180718121747 72 345 0.0 1.0 0.00 0.15 0.00 96 1017.4
20180718121246 72 345 1.0 1.0 0.00 0.15 0.00 96 1017.4
20180718120744 72 343 0.0 0.0 0.00 0.15 0.00 96 1017.4
20180718120243 72 343 0.0 0.0 0.00 0.15 0.00 96 1017.1
20180718115741 72 343 0.0 0.0 0.00 0.15 0.00 96 1017.1
20180718115240 72 343 0.0 0.0 0.00 0.15 0.00 96 1017.1
20180718114739 72 343 0.0 0.0 0.00 0.15 0.00 96 1017.1
20180718114238 71 343 0.0 0.0 0.00 0.15 0.00 96 1016.8
20180718113737 71 343 0.0 0.0 0.00 0.15 0.00 96 1016.8
20180718113236 71 343 0.0 0.0 0.00 0.15 0.00 96 1016.8
20180718112735 71 343 0.0 0.0 0.00 0.15 0.00 96 1016.8
20180718112223 71 343 0.0 0.0 0.00 0.15 0.00 96 1016.8
20180718111722 71 343 0.0 0.0 0.00 0.15 0.00 96 1016.8
20180718111222 71 343 0.0 0.0 0.00 0.15 0.00 96 1016.8
20180718110720 71 342 0.0 0.0 0.00 0.15 0.00 96 1016.8
20180718110219 71 342 0.0 0.0 0.00 0.15 0.00 96 1016.8
20180718105718 71 343 0.0 0.0 0.00 0.15 0.00 96 1016.4
20180718105216 71 343 0.0 0.0 0.00 0.15 0.00 96 1016.4
20180718104715 71 343 0.0 0.0 0.00 0.15 0.00 96 1016.4
20180718104214 71 343 0.0 0.0 0.00 0.15 0.00 96 1016.4
20180718103713 71 343 0.0 0.0 0.00 0.15 0.00 96 1016.4
20180718103212 71 342 0.0 0.0 0.00 0.15 0.00 96 1016.4
20180718102711 71 343 0.0 0.0 0.00 0.15 0.00 96 1016.1
20180718102209 71 343 0.0 0.0 0.00 0.15 0.00 96 1016.1
20180718101708 71 343 0.0 0.0 0.00 0.15 0.00 96 1016.1
20180718101207 72 343 0.0 0.0 0.00 0.15 0.00 96 1016.1
20180718100706 72 343 0.0 0.0 0.00 0.15 0.00 96 1015.7
20180718100205 72 343 0.0 0.0 0.00 0.15 0.00 96 1015.7
20180718095704 72 342 0.0 0.0 0.00 0.15 0.00 96 1015.7
20180718095203 72 343 0.0 1.0 0.00 0.15 0.00 96 1015.7
20180718094702 72 343 0.0 1.0 0.00 0.15 0.00 96 1015.7
20180718094201 72 343 0.0 1.0 0.00 0.15 0.00 96 1015.7
20180718093700 72 343 1.0 1.0 0.00 0.15 0.00 96 1015.7
20180718093159 73 343 0.0 1.0 0.00 0.15 0.00 96 1015.7
20180718092658 73 342 1.0 2.0 0.00 0.15 0.00 96 1015.7
20180718092157 73 342 0.0 2.0 0.00 0.15 0.00 96 1015.7
20180718091656 73 343 0.0 3.0 0.00 0.15 0.00 96 1015.7
20180718091155 73 343 1.0 3.0 0.00 0.15 0.00 96 1015.4
20180718090654 73 330 1.0 3.0 0.00 0.15 0.00 96 1015.4
20180718090153 73 55 1.0 3.0 0.00 0.15 0.00 96 1015.4
20180718085653 73 347 0.0 3.0 0.00 0.15 0.00 96 1015.4
20180718085151 73 347 1.0 4.0 0.00 0.15 0.00 96 1015.4
20180718084650 73 338 2.0 4.0 0.00 0.15 0.00 96 1015.4
20180718084149 73 16 2.0 4.0 0.00 0.15 0.00 96 1015.4
20180718083648 73 14 1.0 4.0 0.00 0.15 0.00 96 1015.4
20180718083147 73 359 2.0 4.0 0.00 0.15 0.00 96 1015.4
20180718082645 73 341 3.0 4.0 0.00 0.15 0.00 96 1015.4
20180718082144 73 119 0.0 1.0 0.00 0.15 0.00 96 1015.7
20180718081643 73 119 0.0 1.0 0.00 0.15 0.00 96 1015.4
20180718081143 73 121 0.0 1.0 0.00 0.15 0.00 96 1015.4
20180718080641 72 121 1.0 1.0 0.00 0.15 0.00 96 1015.4
20180718080140 72 121 0.0 0.0 0.00 0.15 0.00 96 1015.4
20180718075639 72 121 0.0 0.0 0.00 0.15 0.00 96 1015.4
20180718075138 72 121 0.0 0.0 0.00 0.15 0.00 96 1015.4
20180718074636 72 121 0.0 0.0 0.00 0.15 0.00 96 1015.4
20180718074135 72 121 0.0 0.0 0.00 0.15 0.00 96 1015.7
20180718073634 72 121 0.0 0.0 0.00 0.15 0.00 96 1015.7
20180718073133 72 121 0.0 0.0 0.00 0.15 0.00 96 1015.7
20180718072633 72 121 0.0 0.0 0.00 0.15 0.00 96 1015.7
20180718072131 72 121 0.0 0.0 0.00 0.15 0.00 96 1015.7
20180718071629 72 121 0.0 0.0 0.00 0.15 0.00 96 1015.7
20180718071127 72 121 0.0 0.0 0.00 0.15 0.00 96 1015.7
20180718070627 72 121 0.0 0.0 0.00 0.15 0.00 96 1015.7
20180718070125 72 121 0.0 0.0 0.00 0.15 0.00 95 1015.7
20180718065624 72 121 0.0 0.0 0.00 0.15 0.00 95 1016.1
20180718065123 72 121 0.0 0.0 0.00 0.15 0.00 96 1016.1
20180718064622 72 121 0.0 0.0 0.00 0.15 0.00 95 1016.1
20180718064144 73 121 0.0 0.0 0.00 0.15 0.00 95 1016.4
20180718063620 73 121 0.0 0.0 0.00 0.15 0.00 95 1016.4
20180718063119 73 121 0.0 0.0 0.00 0.15 0.00 96 1016.4
20180718062618 73 121 0.0 0.0 0.00 0.15 0.00 95 1016.4
20180718062117 73 121 0.0 0.0 0.00 0.15 0.00 95 1016.4
20180718061615 73 121 0.0 0.0 0.00 0.15 0.00 95 1016.4
20180718061115 73 121 0.0 0.0 0.00 0.15 0.00 95 1016.4
20180718060614 73 121 0.0 0.0 0.00 0.15 0.00 96 1016.4
20180718060113 73 121 0.0 0.0 0.00 0.15 0.00 96 1016.4
20180718055612 74 121 0.0 0.0 0.00 0.15 0.00 96 1016.4
20180718055110 74 122 0.0 0.0 0.00 0.15 0.00 96 1016.4
20180718054609 74 121 0.0 0.0 0.00 0.15 0.00 95 1016.4
20180718054108 74 121 0.0 0.0 0.00 0.15 0.00 96 1016.8
20180718053607 74 121 0.0 0.0 0.00 0.15 0.00 95 1016.8
20180718053105 74 121 0.0 0.0 0.00 0.15 0.00 95 1016.8
20180718052604 74 121 0.0 0.0 0.00 0.15 0.00 95 1017.1
20180718052103 74 122 0.0 0.0 0.00 0.15 0.00 95 1017.1
20180718051603 74 121 0.0 0.0 0.00 0.15 0.00 95 1016.8
20180718051102 74 121 0.0 0.0 0.00 0.15 0.00 95 1016.8
20180718050600 74 121 0.0 0.0 0.00 0.15 0.00 96 1017.1
20180718050059 74 122 0.0 0.0 0.00 0.15 0.00 95 1017.1
20180718045558 74 121 0.0 0.0 0.00 0.15 0.00 95 1017.1
20180718045057 74 121 0.0 0.0 0.00 0.15 0.00 95 1017.1
20180718044556 74 121 0.0 0.0 0.00 0.15 0.00 95 1017.1
20180718044055 74 121 0.0 0.0 0.00 0.15 0.00 95 1017.1
20180718043554 74 121 0.0 0.0 0.00 0.15 0.00 95 1017.1
20180718043053 74 121 0.0 0.0 0.00 0.15 0.00 95 1016.8
20180718042552 74 122 0.0 0.0 0.00 0.15 0.00 95 1016.8
20180718042051 74 121 0.0 0.0 0.00 0.15 0.00 95 1016.8
20180718041550 74 121 0.0 0.0 0.00 0.15 0.00 95 1016.8
20180718041049 74 121 0.0 0.0 0.00 0.15 0.00 95 1016.8
20180718040548 74 121 0.0 1.0 0.00 0.15 0.00 95 1016.8
20180718040047 74 121 0.0 1.0 0.00 0.15 0.00 95 1016.4
20180718035547 74 121 0.0 1.0 0.00 0.15 0.15 95 1016.4
20180718035045 74 121 0.0 0.0 0.00 0.15 0.15 95 1016.4
20180718034544 74 121 0.0 0.0 0.00 0.15 0.15 95 1016.4
20180718034042 74 122 0.0 0.0 0.00 0.15 0.15 95 1016.4
20180718033541 74 121 0.0 0.0 0.00 0.15 0.15 95 1016.4
20180718033040 74 122 0.0 0.0 0.00 0.15 0.15 95 1016.4
20180718032539 74 121 0.0 0.0 0.00 0.15 0.15 95 1016.4
20180718032038 74 122 0.0 0.0 0.00 0.15 0.15 95 1016.4
20180718031537 74 121 0.0 0.0 0.00 0.15 0.15 95 1016.4
20180718031036 74 121 0.0 0.0 0.00 0.15 0.15 95 1016.4
20180718030535 74 122 0.0 0.0 0.00 0.15 0.15 95 1016.4
20180718030033 74 121 0.0 0.0 0.00 0.15 0.15 95 1016.4
20180718025532 74 122 0.0 0.0 0.00 0.15 0.15 95 1016.8
20180718025030 74 121 0.0 1.0 0.00 0.15 0.15 95 1016.4
20180718024529 74 122 0.0 1.0 0.00 0.15 0.15 95 1016.4
20180718024029 74 122 0.0 1.0 0.00 0.15 0.15 95 1016.8
20180718023528 74 122 1.0 1.0 0.00 0.15 0.15 95 1016.8
20180718023027 74 122 0.0 0.0 0.00 0.15 0.15 95 1016.4
20180718022526 74 122 0.0 1.0 0.00 0.15 0.15 95 1016.4
20180718022025 74 122 0.0 1.0 0.00 0.15 0.15 95 1016.4
20180718021524 74 122 0.0 1.0 0.00 0.15 0.15 95 1016.1
20180718021022 75 123 0.0 1.0 0.00 0.15 0.15 95 1016.1
20180718020521 75 55 1.0 1.0 0.00 0.15 0.15 95 1016.1
20180718020021 75 5 0.0 1.0 0.00 0.15 0.15 95 1016.1
20180718015520 75 5 0.0 3.0 0.00 0.15 0.15 95 1016.1
20180718015019 75 5 1.0 3.0 0.00 0.15 0.15 94 1016.1
20180718014518 75 89 1.0 1.0 0.00 0.15 0.15 94 1015.7
20180718014016 75 177 0.0 0.0 0.00 0.15 0.15 95 1015.7
20180718013515 75 207 0.0 0.0 0.00 0.15 0.15 94 1015.7
20180718013015 75 207 0.0 1.0 0.00 0.15 0.15 94 1015.7
20180718012514 75 207 0.0 1.0 0.00 0.15 0.15 94 1015.7
20180718012012 76 207 0.0 1.0 0.00 0.15 0.15 94 1015.7
20180718011512 75 207 0.0 0.0 0.00 0.15 0.15 94 1015.7
20180718011010 76 207 0.0 0.0 0.00 0.15 0.15 94 1015.7
20180718010509 76 207 0.0 1.0 0.00 0.15 0.15 94 1015.7
20180718010008 76 207 0.0 1.0 0.00 0.15 0.15 94 1015.7
20180718005507 76 207 0.0 1.0 0.00 0.15 0.15 94 1015.7
20180718005006 76 207 0.0 1.0 0.00 0.15 0.15 93 1015.7
20180718004506 76 207 1.0 1.0 0.00 0.15 0.15 93 1015.7
20180718004005 76 207 0.0 1.0 0.00 0.15 0.15 93 1015.7
20180718003504 77 207 0.0 0.0 0.00 0.15 0.15 93 1015.7
20180718003003 77 207 0.0 0.0 0.00 0.15 0.15 93 1015.4
20180718002502 77 207 0.0 0.0 0.00 0.15 0.15 93 1015.4
20180718002001 77 207 0.0 1.0 0.00 0.15 0.15 93 1015.7
20180718001500 78 207 0.0 1.0 0.00 0.15 0.15 93 1015.4
20180718000959 78 207 0.0 1.0 0.00 0.15 0.15 93 1015.4
20180718000458 78 207 0.0 1.0 0.00 0.15 0.15 93 1015.4
20180717235957 78 207 1.0 1.0 0.00 0.15 0.15 93 1015.4
20180717235456 78 207 0.0 1.0 0.00 0.15 0.15 93 1015.1
20180717234955 78 207 1.0 1.0 0.00 0.15 0.15 93 1015.1
20180717234454 77 207 0.0 1.0 0.00 0.15 0.15 94 1015.1
20180717233953 77 207 0.0 1.0 0.00 0.15 0.15 93 1015.1
20180717233451 77 207 0.0 1.0 0.00 0.15 0.15 92 1015.1
20180717232951 77 207 0.0 1.0 0.00 0.15 0.15 92 1015.1
20180717232449 78 207 0.0 1.0 0.00 0.15 0.15 92 1015.1
20180717231947 78 207 0.0 2.0 0.00 0.15 0.15 91 1015.1
20180717231445 78 207 0.0 3.0 0.00 0.15 0.15 89 1015.1
20180717230944 78 208 1.0 4.0 0.02 0.15 0.15 89 1014.7
20180717230441 78 198 1.0 4.0 0.05 0.15 0.15 89 1015.1
20180717225940 77 215 2.0 4.0 0.06 0.15 0.15 90 1015.1
20180717225439 77 215 1.0 3.0 0.06 0.15 0.15 90 1015.1
20180717224937 77 217 0.0 4.0 0.06 0.15 0.15 90 1014.7
20180717224436 77 219 2.0 4.0 0.06 0.15 0.15 89 1015.1
20180717223935 77 57 1.0 3.0 0.06 0.15 0.15 91 1014.7
20180717223433 77 240 1.0 3.0 0.06 0.15 0.15 93 1014.7
20180717222931 76 212 1.0 2.0 0.06 0.15 0.15 92 1015.1
20180717222431 77 141 1.0 3.0 0.06 0.15 0.15 92 1015.1
20180717221929 77 117 0.0 3.0 0.06 0.15 0.15 91 1015.1
20180717221428 77 122 1.0 4.0 0.06 0.15 0.15 89 1015.1
20180717220927 77 212 1.0 4.0 0.03 0.12 0.12 88 1015.1
20180717220425 78 263 1.0 5.0 0.00 0.08 0.08 86 1015.1
20180717215924 78 320 2.0 5.0 0.00 0.08 0.08 84 1015.4
20180717215424 79 358 2.0 6.0 0.00 0.08 0.08 84 1015.4
20180717214922 79 343 3.0 6.0 0.00 0.08 0.08 81 1015.4
20180717214420 79 2 1.0 3.0 0.00 0.08 0.08 83 1015.1
20180717213920 79 324 2.0 4.0 0.00 0.08 0.08 81 1015.1
20180717213417 79 207 2.0 4.0 0.00 0.08 0.08 80 1015.1
20180717212916 80 175 2.0 5.0 0.00 0.08 0.08 84 1015.1
20180717212415 80 92 1.0 13.0 0.00 0.08 0.08 82 1015.4
20180717211913 80 138 1.0 13.0 0.00 0.08 0.08 82 1015.1
20180717211413 81 348 3.0 16.0 0.00 0.08 0.08 81 1015.1
20180717210912 83 354 7.0 16.0 0.00 0.08 0.08 79 1015.4
20180717210410 84 325 4.0 9.0 0.00 0.08 0.08 79 1015.4
20180717205909 84 9 3.0 13.0 0.00 0.08 0.08 76 1015.1
20180717205408 84 158 2.0 13.0 0.00 0.08 0.08 80 1014.7
20180717204906 84 58 2.0 5.0 0.00 0.08 0.08 78 1015.1
20180717204405 83 25 2.0 5.0 0.00 0.08 0.08 80 1015.1
20180717203904 82 44 2.0 5.0 0.00 0.08 0.08 81 1015.1
20180717203402 82 312 3.0 5.0 0.00 0.08 0.08 81 1015.1
20180717202901 81 158 0.0 5.0 0.00 0.08 0.08 83 1014.7
20180717202400 80 305 1.0 6.0 0.00 0.08 0.08 85 1015.1
20180717201858 80 67 1.0 6.0 0.01 0.08 0.08 84 1014.7
20180717201357 80 45 4.0 6.0 0.06 0.08 0.08 83 1014.7
20180717200856 79 86 2.0 8.0 0.06 0.08 0.08 86 1015.1
20180717200354 78 71 2.0 8.0 0.07 0.09 0.08 88 1015.1
20180717195854 77 91 1.0 6.0 0.07 0.09 0.08 91 1015.1
20180717195352 77 40 4.0 6.0 0.07 0.09 0.08 90 1014.7
20180717194850 76 56 1.0 9.0 0.07 0.09 0.08 92 1015.1
20180717194350 75 50 3.0 9.0 0.07 0.09 0.08 92 1015.1
20180717193849 75 48 2.0 4.0 0.07 0.09 0.08 93 1015.1
20180717193347 74 38 2.0 3.0 0.07 0.13 0.08 92 1015.1
20180717192846 74 155 0.0 5.0 0.07 0.19 0.08 92 1015.1
20180717192345 74 150 1.0 11.0 0.07 0.19 0.08 90 1015.1
20180717191842 75 51 1.0 12.0 0.05 0.17 0.06 87 1015.1
20180717191341 75 22 1.0 15.0 0.01 0.13 0.02 87 1015.4
20180717190840 76 7 6.0 16.0 0.01 0.13 0.02 83 1015.4
20180717190337 77 354 8.0 18.0 0.01 0.12 0.01 82 1015.4
20180717185836 78 350 9.0 21.0 0.01 0.12 0.01 81 1015.7
20180717185335 80 348 12.0 21.0 0.01 0.12 0.01 79 1015.7
20180717184833 83 358 11.0 18.0 0.01 0.12 0.01 76 1015.4
20180717184332 84 356 9.0 13.0 0.01 0.12 0.01 83 1015.4
20180717183831 83 318 2.0 5.0 0.01 0.15 0.01 84 1015.1
20180717183330 83 184 3.0 5.0 0.01 0.18 0.01 83 1015.1
20180717182828 82 203 1.0 4.0 0.01 0.22 0.01 83 1015.4
20180717182328 82 143 2.0 10.0 0.01 0.25 0.01 83 1015.4
20180717181825 83 156 3.0 10.0 0.01 0.29 0.01 83 1015.4
20180717181324 84 94 0.0 11.0 0.01 0.30 0.01 79 1015.7
20180717180824 87 181 6.0 11.0 0.01 0.31 0.01 73 1015.7
20180717180321 88 153 1.0 5.0 0.00 0.30 0.00 70 1015.4
20180717175820 87 163 1.0 6.0 0.00 0.30 0.00 71 1015.4
20180717175316 87 102 2.0 8.0 0.00 0.30 0.00 69 1015.7
20180717174814 86 175 3.0 8.0 0.00 0.30 0.00 76 1015.7
20180717174314 87 187 4.0 10.0 0.00 0.30 0.00 71 1015.7